FW9167 Weather Reports


Display with metric or nautical units.
time (UTC)temp
F
wind
direction
speed
MPH
gust
MPH
rain 1hr
in
rain 24hr
in
rain mn
in
humidity
%
barometer
mb
20260831191603 79 92 3.0 5.0 0.00 0.00 0.00 25 1016.1
20260831184603 78 48 0.0 3.0 0.00 0.00 0.00 25 1016.6
20260831183103 75 100 0.0 3.0 0.00 0.00 0.00 26 1016.8
20260831181602 74 122 1.0 2.0 0.00 0.00 0.00 29 1016.8
20260831180107 73 152 0.0 3.0 0.00 0.00 0.00 30 1016.9
20260831174606 72 143 0.0 2.0 0.00 0.00 0.00 32 1017.0
20260831171603 68 49 0.0 5.0 0.00 0.00 0.00 33 1017.3
20260831170105 67 98 0.0 2.0 0.00 0.00 0.00 35 1017.4
20260831164603 66 121 0.0 2.0 0.00 0.00 0.00 38 1017.6
20260831163102 64 156 0.0 3.0 0.00 0.00 0.00 40 1017.8
20260831161604 63 110 0.0 3.0 0.00 0.00 0.00 41 1017.8
20260831154602 61 133 0.0 2.0 0.00 0.00 0.00 43 1018.0
20260831153106 58 94 0.0 1.0 0.00 0.00 0.00 44 1018.1
20260831151602 55 346 0.0 1.0 0.00 0.00 0.00 52 1018.2
20260831150104 55 96 0.0 0.0 0.00 0.00 0.00 52 1018.2
20260831144606 54 130 0.0 0.0 0.00 0.00 0.00 57 1018.3
20260831143105 52 235 0.0 0.0 0.00 0.00 0.00 60 1018.2
20260831141602 48 348 0.0 0.0 0.00 0.00 0.00 68 1018.1
20260831134603 42 34 0.0 1.0 0.00 0.00 0.00 75 1017.9
20260831131603 41 318 0.0 0.0 0.00 0.00 0.00 71 1017.9
20260831124603 45 281 0.0 1.0 0.00 0.00 0.00 66 1017.7
20260831123103 44 286 0.0 0.0 0.00 0.00 0.00 66 1017.6
20260831121602 43 328 0.0 2.0 0.00 0.00 0.00 70 1017.4
20260831114602 43 335 0.0 1.0 0.00 0.00 0.00 69 1017.7
20260831113102 43 337 0.0 1.0 0.00 0.00 0.00 68 1017.4
20260831111601 46 271 0.0 0.0 0.00 0.00 0.00 60 1017.4
20260831104603 44 6 2.0 2.0 0.00 0.00 0.00 65 1017.3
20260831103102 46 324 0.0 1.0 0.00 0.00 0.00 62 1017.3
20260831101602 47 349 0.0 1.0 0.00 0.00 0.00 61 1017.2
20260831100103 48 326 0.0 1.0 0.00 0.00 0.00 57 1017.3
20260831094602 47 287 0.0 1.0 0.00 0.00 0.00 58 1017.4
20260831093102 46 38 0.0 2.0 0.00 0.00 0.00 61 1017.4
20260831091603 48 1 0.0 1.0 0.00 0.00 0.00 55 1017.3
20260831084602 51 282 0.0 3.0 0.00 0.00 0.00 50 1017.4
20260831083105 52 289 0.0 1.0 0.00 0.00 0.00 49 1017.4
20260831081602 53 284 0.0 1.0 0.00 0.00 0.00 48 1017.4
20260831074603 53 323 1.0 3.0 0.00 0.00 0.00 49 1017.6
20260831070103 53 325 1.0 1.0 0.00 0.00 0.00 48 1017.8
20260831064602 54 323 2.0 4.0 0.00 0.00 0.00 44 1017.8
20260831063101 57 322 0.0 2.0 0.00 0.00 0.00 41 1017.8
20260831061602 56 325 0.0 4.0 0.00 0.00 0.00 43 1017.8
20260831060104 54 321 0.0 1.0 0.00 0.00 0.00 46 1017.8
20260831054602 56 356 2.0 3.0 0.00 0.00 0.00 43 1017.6
20260831053103 59 333 0.0 5.0 0.00 0.00 0.00 38 1017.6
20260831051602 59 30 1.0 3.0 0.00 0.00 0.00 38 1017.7
20260831044602 62 330 2.0 6.0 0.00 0.00 0.00 35 1017.6
20260831043103 61 27 5.0 7.0 0.00 0.00 0.00 36 1017.5
20260831041603 61 316 1.0 6.0 0.00 0.00 0.00 36 1017.3
20260831033103 61 330 1.0 4.0 0.00 0.00 0.00 37 1017.0
20260831023102 63 321 0.0 5.0 0.00 0.00 0.00 37 1016.6
20260831021604 64 321 2.0 4.0 0.00 0.00 0.00 37 1016.5
20260831020105 69 305 0.0 3.0 0.00 0.00 0.00 33 1016.5
20260831014604 72 108 0.0 1.0 0.00 0.00 0.00 28 1016.5
20260831013103 73 330 0.0 4.0 0.00 0.00 0.00 28 1016.5
20260831011601 74 72 1.0 2.0 0.00 0.00 0.00 27 1016.6
20260831004604 75 239 1.0 13.0 0.00 0.00 0.00 23 1016.6
20260831003102 76 248 1.0 9.0 0.00 0.00 0.00 22 1016.6
20260831001601 77 226 4.0 9.0 0.00 0.00 0.00 22 1016.6
20260831000104 77 211 5.0 10.0 0.00 0.00 0.00 22 1016.7
20260830234602 78 238 2.0 12.0 0.00 0.00 0.00 21 1016.7
20260830233102 79 131 0.0 5.0 0.00 0.00 0.00 19 1016.9
20260830231602 78 232 7.0 10.0 0.00 0.00 0.00 20 1017.0
20260830230104 78 118 1.0 5.0 0.00 0.00 0.00 19 1017.2
20260830223107 76 121 2.0 9.0 0.00 0.00 0.00 20 1017.7
20260830221602 76 103 3.0 8.0 0.00 0.00 0.00 22 1017.7
20260830214605 74 112 1.0 8.0 0.00 0.00 0.00 25 1018.1
20260830213102 74 238 0.0 7.0 0.00 0.00 0.00 23 1018.2
20260830211603 74 104 3.0 12.0 0.00 0.00 0.00 26 1018.4
20260830203102 72 142 3.0 8.0 0.00 0.00 0.00 24 1018.9
20260830201605 72 131 4.0 10.0 0.00 0.00 0.00 26 1018.9
20260830200104 71 131 3.0 8.0 0.00 0.00 0.00 29 1019.2
20260830194607 71 153 1.0 6.0 0.00 0.00 0.00 30 1019.4